UAL1322 KIAD-KRDU

Flight info

Callsign UAL1322
Flight time 0h 48m
Altitude 28000
Route JDUBB4 MELTN ALDAN4
Aircraft A320/M-SDE3FGHIRWY/LB1

Departure

Time 2026-05-06 23:00
Airport Washington Dulles International Airport (KIAD)

Arrival

Time 2026-05-06 23:48
Airport Raleigh-Durham International Airport (KRDU)
Time Latitude Longitude Altitude Speed Heading
2026-05-06 22:19 38.94589 -77.44865 306 ft 0 kts 174°
2026-05-06 22:47 38.94601 -77.44867 307 ft 3 kts 174°
2026-05-06 22:48 38.94618 -77.44869 305 ft 3 kts 180°
2026-05-06 22:48 38.94637 -77.44865 304 ft 3 kts 217°
2026-05-06 22:48 38.94649 -77.44848 303 ft 3 kts 254°
2026-05-06 22:48 38.94651 -77.44836 302 ft 0 kts 269°
2026-05-06 22:51 38.94651 -77.44842 302 ft 2 kts 269°
2026-05-06 22:52 38.94651 -77.44847 303 ft 2 kts 269°
2026-05-06 22:52 38.94651 -77.44878 304 ft 5 kts 270°
2026-05-06 22:52 38.94651 -77.44939 303 ft 9 kts 270°
2026-05-06 22:52 38.94655 -77.45033 301 ft 12 kts 276°
2026-05-06 22:53 38.94666 -77.45160 299 ft 16 kts 275°
2026-05-06 22:53 38.94667 -77.45321 296 ft 19 kts 269°
2026-05-06 22:53 38.94668 -77.45468 294 ft 9 kts 271°
2026-05-06 22:53 38.94669 -77.45517 297 ft 3 kts 270°
2026-05-06 22:54 38.94669 -77.45528 296 ft 0 kts 270°
2026-05-06 22:54 38.94669 -77.45539 294 ft 3 kts 269°
2026-05-06 22:55 38.94662 -77.45583 292 ft 7 kts 245°
2026-05-06 22:55 38.94612 -77.45608 294 ft 9 kts 183°
2026-05-06 22:55 38.94546 -77.45607 294 ft 10 kts 180°
2026-05-06 22:55 38.94475 -77.45607 297 ft 10 kts 180°
2026-05-06 22:56 38.94404 -77.45608 298 ft 11 kts 181°
2026-05-06 22:56 38.94327 -77.45610 300 ft 12 kts 181°
2026-05-06 22:56 38.94238 -77.45612 299 ft 14 kts 181°
2026-05-06 22:56 38.94137 -77.45616 301 ft 15 kts 182°
2026-05-06 22:57 38.94026 -77.45617 300 ft 17 kts 179°
2026-05-06 22:57 38.93902 -77.45615 299 ft 19 kts 181°
2026-05-06 22:57 38.93771 -77.45619 298 ft 16 kts 180°
2026-05-06 22:57 38.93698 -77.45599 299 ft 9 kts 142°
2026-05-06 22:58 38.93649 -77.45532 298 ft 11 kts 130°
2026-05-06 22:58 38.93575 -77.45503 299 ft 13 kts 194°
2026-05-06 22:58 38.93477 -77.45552 293 ft 17 kts 201°
2026-05-06 22:58 38.93392 -77.45616 295 ft 14 kts 238°
2026-05-06 22:59 38.93405 -77.45742 298 ft 15 kts 290°
2026-05-06 22:59 38.93490 -77.46033 299 ft 67 kts 290°
2026-05-06 22:59 38.93728 -77.46843 308 ft 123 kts 290°
2026-05-06 22:59 38.94081 -77.48050 326 ft 163 kts 289°
2026-05-06 23:00 38.94512 -77.49406 841 ft 160 kts 290°
2026-05-06 23:00 38.94837 -77.50737 1468 ft 152 kts 270°
2026-05-06 23:00 38.94990 -77.52073 2021 ft 154 kts 270°
2026-05-06 23:00 38.95133 -77.53511 2289 ft 175 kts 269°
2026-05-06 23:01 38.95280 -77.55182 2584 ft 196 kts 269°
2026-05-06 23:01 38.95423 -77.57000 2856 ft 220 kts 269°
2026-05-06 23:01 38.95568 -77.59096 3270 ft 243 kts 269°
2026-05-06 23:01 38.95517 -77.61278 4021 ft 245 kts 252°
2026-05-06 23:02 38.94759 -77.63213 4924 ft 244 kts 228°
2026-05-06 23:02 38.93394 -77.64506 5819 ft 248 kts 203°
2026-05-06 23:02 38.91668 -77.64855 6652 ft 259 kts 180°
2026-05-06 23:02 38.89854 -77.64592 7477 ft 265 kts 178°
2026-05-06 23:03 38.88009 -77.64294 8274 ft 270 kts 178°
2026-05-06 23:03 38.86150 -77.63990 9045 ft 276 kts 178°
2026-05-06 23:03 38.84224 -77.63674 9799 ft 282 kts 178°
2026-05-06 23:03 38.82252 -77.63353 10351 ft 294 kts 178°
2026-05-06 23:04 38.80139 -77.63021 10557 ft 318 kts 178°
2026-05-06 23:04 38.77882 -77.62668 10917 ft 333 kts 178°
2026-05-06 23:04 38.75565 -77.62299 11551 ft 338 kts 178°
2026-05-06 23:04 38.73213 -77.61923 12238 ft 342 kts 178°
2026-05-06 23:05 38.70835 -77.61542 12937 ft 346 kts 178°
2026-05-06 23:05 38.68431 -77.61157 13616 ft 350 kts 178°
2026-05-06 23:05 38.65998 -77.60770 14236 ft 354 kts 178°
2026-05-06 23:05 38.63549 -77.60384 14859 ft 356 kts 178°
2026-05-06 23:06 38.61076 -77.59993 15474 ft 359 kts 178°
2026-05-06 23:06 38.58585 -77.59600 16086 ft 362 kts 178°
2026-05-06 23:06 38.56076 -77.59203 16693 ft 365 kts 178°
2026-05-06 23:06 38.53552 -77.58807 17320 ft 367 kts 178°
2026-05-06 23:07 38.51003 -77.58411 17944 ft 370 kts 178°
2026-05-06 23:07 38.48432 -77.58016 18510 ft 374 kts 178°
2026-05-06 23:07 38.45839 -77.57617 19086 ft 376 kts 178°
2026-05-06 23:07 38.43232 -77.57314 19661 ft 376 kts 184°
2026-05-06 23:08 38.40640 -77.57582 20246 ft 373 kts 195°
2026-05-06 23:08 38.38156 -77.58467 20718 ft 370 kts 205°
2026-05-06 23:08 38.35868 -77.59922 20840 ft 365 kts 216°
2026-05-06 23:08 38.33765 -77.61727 20880 ft 365 kts 217°
2026-05-06 23:09 38.31665 -77.63540 20872 ft 365 kts 217°
2026-05-06 23:09 38.29565 -77.65347 20870 ft 365 kts 217°
2026-05-06 23:09 38.27461 -77.67157 20887 ft 366 kts 217°
2026-05-06 23:09 38.25344 -77.68984 21425 ft 369 kts 217°
2026-05-06 23:10 38.23211 -77.70822 22023 ft 371 kts 217°
2026-05-06 23:10 38.21068 -77.72665 22569 ft 374 kts 217°
2026-05-06 23:10 38.18905 -77.74521 23107 ft 376 kts 217°
2026-05-06 23:10 38.16733 -77.76386 23599 ft 379 kts 217°
2026-05-06 23:11 38.14541 -77.78270 24004 ft 382 kts 218°
2026-05-06 23:11 38.12336 -77.80166 24399 ft 384 kts 218°
2026-05-06 23:11 38.10110 -77.82077 24793 ft 387 kts 218°
2026-05-06 23:11 38.07865 -77.83998 25167 ft 390 kts 218°
2026-05-06 23:12 38.05607 -77.85923 25548 ft 393 kts 218°
2026-05-06 23:12 38.03326 -77.87867 25929 ft 396 kts 218°
2026-05-06 23:12 38.01040 -77.89822 26284 ft 398 kts 219°
2026-05-06 23:12 37.98736 -77.91794 26640 ft 401 kts 219°
2026-05-06 23:13 37.96415 -77.93773 26999 ft 404 kts 219°
2026-05-06 23:13 37.94076 -77.95766 27362 ft 406 kts 219°
2026-05-06 23:13 37.91725 -77.97771 27730 ft 409 kts 219°
2026-05-06 23:13 37.89362 -77.99783 27875 ft 407 kts 219°
2026-05-06 23:14 37.87033 -78.01758 27894 ft 401 kts 219°
2026-05-06 23:14 37.84716 -78.03723 27897 ft 399 kts 219°
2026-05-06 23:14 37.82413 -78.05679 27899 ft 398 kts 219°
2026-05-06 23:14 37.80117 -78.07627 27899 ft 398 kts 219°
2026-05-06 23:15 37.77816 -78.09578 27897 ft 398 kts 219°
2026-05-06 23:15 37.75516 -78.11528 27899 ft 398 kts 219°
2026-05-06 23:15 37.73213 -78.13479 27898 ft 398 kts 219°
2026-05-06 23:15 37.70913 -78.15424 27899 ft 398 kts 219°
2026-05-06 23:16 37.68617 -78.17364 27897 ft 398 kts 219°
2026-05-06 23:16 37.66306 -78.19316 27891 ft 399 kts 219°
2026-05-06 23:16 37.64002 -78.21260 27892 ft 399 kts 219°
2026-05-06 23:16 37.61695 -78.23208 27892 ft 399 kts 219°
2026-05-06 23:17 37.59393 -78.25147 27891 ft 399 kts 219°
2026-05-06 23:17 37.57111 -78.27067 27895 ft 399 kts 219°
2026-05-06 23:17 37.54776 -78.29030 27898 ft 399 kts 219°
2026-05-06 23:17 37.52496 -78.30945 27899 ft 399 kts 219°
2026-05-06 23:18 37.50187 -78.32882 27900 ft 399 kts 219°
2026-05-06 23:18 37.47875 -78.34820 27899 ft 399 kts 219°
2026-05-06 23:18 37.45562 -78.36758 27903 ft 399 kts 219°
2026-05-06 23:18 37.43252 -78.38697 27903 ft 399 kts 219°
2026-05-06 23:19 37.40947 -78.40633 27902 ft 399 kts 219°
2026-05-06 23:19 37.38639 -78.42568 27900 ft 399 kts 219°
2026-05-06 23:19 37.36323 -78.44504 27905 ft 399 kts 219°
2026-05-06 23:19 37.34006 -78.46435 27906 ft 399 kts 219°
2026-05-06 23:20 37.31692 -78.48366 27908 ft 399 kts 219°
2026-05-06 23:20 37.29380 -78.50296 27908 ft 399 kts 219°
2026-05-06 23:20 37.27070 -78.52224 27908 ft 399 kts 219°
2026-05-06 23:20 37.24758 -78.54151 27908 ft 399 kts 219°
2026-05-06 23:21 37.22442 -78.56079 27910 ft 399 kts 219°
2026-05-06 23:21 37.20125 -78.58005 27903 ft 399 kts 219°
2026-05-06 23:21 37.17806 -78.59932 27913 ft 403 kts 219°
2026-05-06 23:21 37.15457 -78.61888 27667 ft 406 kts 219°
2026-05-06 23:22 37.13114 -78.63834 26526 ft 403 kts 219°
2026-05-06 23:22 37.10793 -78.65761 26079 ft 396 kts 219°
2026-05-06 23:22 37.08515 -78.67646 25639 ft 390 kts 218°
2026-05-06 23:22 37.06270 -78.69499 25189 ft 385 kts 218°
2026-05-06 23:23 37.04042 -78.71338 24744 ft 381 kts 218°
2026-05-06 23:23 37.01841 -78.73158 24315 ft 378 kts 218°
2026-05-06 23:23 36.99693 -78.75022 23879 ft 372 kts 225°
2026-05-06 23:23 36.98020 -78.77415 23469 ft 363 kts 237°
2026-05-06 23:24 36.96588 -78.79967 23175 ft 355 kts 238°
2026-05-06 23:24 36.95187 -78.82492 22765 ft 352 kts 238°
2026-05-06 23:24 36.93797 -78.84991 22323 ft 349 kts 238°
2026-05-06 23:24 36.92423 -78.87464 21966 ft 345 kts 238°
2026-05-06 23:25 36.91045 -78.89941 21911 ft 347 kts 238°
2026-05-06 23:25 36.89665 -78.92417 21919 ft 348 kts 238°
2026-05-06 23:25 36.88281 -78.94897 21920 ft 348 kts 238°
2026-05-06 23:25 36.86901 -78.97365 21897 ft 346 kts 238°
2026-05-06 23:26 36.85523 -78.99820 21453 ft 343 kts 238°
2026-05-06 23:26 36.84182 -79.02273 21005 ft 340 kts 240°
2026-05-06 23:26 36.82856 -79.04708 20550 ft 338 kts 239°
2026-05-06 23:26 36.81515 -79.07109 20088 ft 336 kts 238°
2026-05-06 23:27 36.80633 -79.08688 19798 ft 334 kts 238°
2026-05-06 23:27 36.79310 -79.11061 19353 ft 332 kts 238°
2026-05-06 23:27 36.77577 -79.14180 18962 ft 330 kts 238°
2026-05-06 23:27 36.76690 -79.15779 18916 ft 330 kts 239°
2026-05-06 23:28 36.75390 -79.18123 18608 ft 328 kts 238°
2026-05-06 23:28 36.74101 -79.20455 18148 ft 326 kts 238°
2026-05-06 23:28 36.72817 -79.22780 17631 ft 324 kts 239°
2026-05-06 23:28 36.71549 -79.25089 17166 ft 322 kts 239°
2026-05-06 23:29 36.70291 -79.27386 16975 ft 321 kts 239°
2026-05-06 23:29 36.69030 -79.29691 16988 ft 323 kts 239°
2026-05-06 23:29 36.67764 -79.32006 16994 ft 323 kts 239°
2026-05-06 23:29 36.66498 -79.34318 16998 ft 323 kts 239°
2026-05-06 23:30 36.65232 -79.36631 16999 ft 323 kts 239°
2026-05-06 23:30 36.63967 -79.38945 17001 ft 323 kts 239°
2026-05-06 23:30 36.62644 -79.41205 16998 ft 326 kts 231°
2026-05-06 23:30 36.60831 -79.42934 16928 ft 335 kts 212°
2026-05-06 23:31 36.58561 -79.43735 16667 ft 347 kts 189°
2026-05-06 23:31 36.56132 -79.43356 16420 ft 361 kts 166°
2026-05-06 23:31 36.53948 -79.41753 16168 ft 375 kts 141°
2026-05-06 23:31 36.52434 -79.39078 15920 ft 385 kts 115°
2026-05-06 23:32 36.51516 -79.35947 15680 ft 386 kts 111°
2026-05-06 23:32 36.50654 -79.32788 15431 ft 385 kts 111°
2026-05-06 23:32 36.49810 -79.29641 15186 ft 383 kts 111°
2026-05-06 23:32 36.48970 -79.26507 14946 ft 382 kts 111°
2026-05-06 23:33 36.48124 -79.23389 14702 ft 380 kts 111°
2026-05-06 23:33 36.47278 -79.20311 14401 ft 373 kts 111°
2026-05-06 23:33 36.46437 -79.17271 13967 ft 372 kts 111°
2026-05-06 23:33 36.45598 -79.14242 13503 ft 370 kts 111°
2026-05-06 23:34 36.44761 -79.11223 13089 ft 367 kts 111°
2026-05-06 23:34 36.43932 -79.08239 12662 ft 364 kts 112°
2026-05-06 23:34 36.43107 -79.05280 12244 ft 362 kts 112°
2026-05-06 23:34 36.42287 -79.02340 11836 ft 359 kts 112°
2026-05-06 23:35 36.41484 -78.99458 11708 ft 347 kts 112°
2026-05-06 23:35 36.40710 -78.96678 11525 ft 334 kts 112°
2026-05-06 23:35 36.39828 -78.94056 11244 ft 325 kts 123°
2026-05-06 23:35 36.38542 -78.91808 10959 ft 316 kts 137°
2026-05-06 23:36 36.37014 -78.89841 10539 ft 316 kts 140°
2026-05-06 23:36 36.35489 -78.87903 10247 ft 313 kts 140°
2026-05-06 23:36 36.33974 -78.85983 9905 ft 309 kts 140°
2026-05-06 23:36 36.32476 -78.84085 9164 ft 309 kts 139°
2026-05-06 23:37 36.30980 -78.82192 8619 ft 303 kts 139°
2026-05-06 23:37 36.29521 -78.80356 8143 ft 295 kts 139°
2026-05-06 23:37 36.28111 -78.78582 8031 ft 283 kts 140°
2026-05-06 23:37 36.26759 -78.76873 7964 ft 272 kts 139°
2026-05-06 23:38 36.25462 -78.75222 7798 ft 266 kts 140°
2026-05-06 23:38 36.24169 -78.73578 7478 ft 266 kts 140°
2026-05-06 23:38 36.22887 -78.71954 7121 ft 261 kts 140°
2026-05-06 23:38 36.21639 -78.70370 6782 ft 252 kts 140°
2026-05-06 23:39 36.20430 -78.68838 6452 ft 245 kts 140°
2026-05-06 23:39 36.19256 -78.67350 6108 ft 238 kts 141°
2026-05-06 23:39 36.18034 -78.66054 5788 ft 226 kts 147°
2026-05-06 23:39 36.16831 -78.64854 5484 ft 219 kts 148°
2026-05-06 23:40 36.15653 -78.63680 5193 ft 217 kts 148°
2026-05-06 23:40 36.14478 -78.62509 4899 ft 217 kts 148°
2026-05-06 23:40 36.13298 -78.61335 4595 ft 218 kts 148°
2026-05-06 23:40 36.12112 -78.60180 4362 ft 213 kts 154°
2026-05-06 23:41 36.10805 -78.59614 4229 ft 191 kts 182°
2026-05-06 23:41 36.09508 -78.59636 4034 ft 182 kts 189°
2026-05-06 23:41 36.08285 -78.59745 3921 ft 170 kts 190°
2026-05-06 23:41 36.07134 -78.59852 3796 ft 162 kts 191°
2026-05-06 23:42 36.06037 -78.59956 3626 ft 156 kts 190°
2026-05-06 23:42 36.04932 -78.60076 3273 ft 161 kts 190°
2026-05-06 23:42 36.03827 -78.60291 3026 ft 158 kts 205°
2026-05-06 23:42 36.02917 -78.61026 3000 ft 154 kts 226°
2026-05-06 23:43 36.02197 -78.61922 3006 ft 141 kts 226°
2026-05-06 23:43 36.01510 -78.62774 3000 ft 139 kts 226°
2026-05-06 23:43 36.00840 -78.63606 3005 ft 138 kts 226°
2026-05-06 23:43 36.00157 -78.64454 3003 ft 138 kts 226°
2026-05-06 23:44 35.99482 -78.65291 2995 ft 137 kts 226°
2026-05-06 23:44 35.98810 -78.66126 2902 ft 138 kts 227°
2026-05-06 23:44 35.98134 -78.66963 2767 ft 137 kts 226°
2026-05-06 23:44 35.97466 -78.67792 2604 ft 136 kts 226°
2026-05-06 23:45 35.96797 -78.68621 2440 ft 136 kts 226°
2026-05-06 23:45 35.96129 -78.69449 2269 ft 137 kts 227°
2026-05-06 23:45 35.95465 -78.70272 2091 ft 139 kts 227°
2026-05-06 23:45 35.94792 -78.71106 1911 ft 137 kts 227°
2026-05-06 23:46 35.94121 -78.71937 1732 ft 135 kts 226°
2026-05-06 23:46 35.93468 -78.72746 1562 ft 134 kts 225°
2026-05-06 23:46 35.92803 -78.73569 1388 ft 137 kts 225°
2026-05-06 23:46 35.92126 -78.74407 1219 ft 135 kts 224°
2026-05-06 23:47 35.91450 -78.75244 1034 ft 139 kts 225°
2026-05-06 23:47 35.90789 -78.76060 851 ft 136 kts 225°
2026-05-06 23:47 35.90129 -78.76875 671 ft 136 kts 225°
2026-05-06 23:47 35.89492 -78.77665 539 ft 136 kts 225°
2026-05-06 23:48 35.88834 -78.78490 410 ft 116 kts 225°
2026-05-06 23:48 35.88376 -78.79051 392 ft 69 kts 224°
2026-05-06 23:48 35.88154 -78.79322 393 ft 28 kts 225°
2026-05-06 23:48 35.87994 -78.79472 392 ft 19 kts 187°
2026-05-06 23:49 35.87911 -78.79458 390 ft 11 kts 176°
2026-05-06 23:49 35.87889 -78.79472 389 ft 0 kts 224°
2026-05-06 23:49 35.87888 -78.79472 389 ft 0 kts 224°
2026-05-06 23:50 35.87887 -78.79473 389 ft 1 kts 219°
2026-05-06 23:50 35.87882 -78.79465 389 ft 0 kts 114°
2026-05-06 23:50 35.87883 -78.79463 389 ft 1 kts 98°
2026-05-06 23:51 35.87889 -78.79453 390 ft 1 kts 46°
2026-05-06 23:51 35.87915 -78.79424 391 ft 9 kts 41°
2026-05-06 23:51 35.87966 -78.79365 391 ft 11 kts 45°
2026-05-06 23:51 35.87978 -78.79350 391 ft 0 kts 45°
2026-05-06 23:52 35.87988 -78.79336 391 ft 4 kts 54°
2026-05-06 23:52 35.87989 -78.79332 391 ft 0 kts 59°
2026-05-06 23:53 35.87990 -78.79332 391 ft 0 kts 59°
2026-05-06 23:53 35.87995 -78.79315 391 ft 4 kts 75°
2026-05-06 23:54 35.87984 -78.79271 391 ft 7 kts 120°
2026-05-06 23:54 35.87944 -78.79214 390 ft 10 kts 137°
2026-05-06 23:54 35.87929 -78.79196 390 ft 0 kts 136°